Flag for Germany Weather past 2 weeks in Buxtehude, Lower Saxony, Germany

Now
34 °F

Passing clouds.


Feels Like: 28 °F
Forecast: 34 / 45 °F
Wind: 7 mph from Southwest

Location: Hamburg-Finkenwerder

Current Time: Mar 4, 2015 at 6:21:24 AM

Latest Report: Mar 4, 2015 at 5:50 AM


Visibility: N/A

Pressure: 29.98 "Hg

Humidity: 100%

Dew point: 34 °F

Location of BuxtehudeLocation

Historic Weather in Buxtehude — Graph

°F

Buxtehude temperature yesterday

Maximum temperature yesterday: 43 °F (at 12:20 PM)
Minimum temperature yesterday: 34 °F (at 6:50 AM)
Average temperature yesterday: 39 °F

Past Weeks' High & Low Weather Summary

 TemperatureHumidityPressure
High46 °F (Feb 25, 3:20 PM)100% (Feb 17, 5:50 AM)30.69 "Hg (Feb 17, 5:50 AM)
Low27 °F (Feb 17, 7:20 AM)61% (Feb 18, 4:20 PM)29.24 "Hg (Feb 21, 10:50 AM)
Average39 °F89%29.91 "Hg
* Reported Feb 17 5:50 AM — Mar 3 8:50 PM, Buxtehude, Weather by CustomWeather, © 2015

Note: Actual official high and low records may vary slightly from our data, if they occured in-between our weather recording intervals... More about our weather records

Advertising

Buxtehude weather history for previous 24 hours

 ConditionsComfort  
Time TempWeatherWind HumidityBarometerVisibility
8:50 PM
Tue, Mar 3
37 °FPassing clouds.18 mph93%29.86 "HgN/A
8:20 PM37 °FPassing clouds.18 mph100%29.86 "HgN/A
7:50 PM39 °FPassing clouds.15 mph100%29.83 "Hg5 mi
7:20 PM37 °FPartly cloudy.16 mph100%29.83 "Hg6 mi
6:50 PM37 °FPassing clouds.10 mph100%29.83 "Hg5 mi
6:20 PM37 °FLight rain. Passing clouds.13 mph100%29.83 "Hg5 mi
5:50 PM37 °FLight rain. Partly sunny.13 mph100%29.83 "Hg5 mi
5:20 PM39 °FLight rain. Partly sunny.12 mph100%29.83 "Hg5 mi
4:50 PM37 °FLight rain. Partly sunny.3 mph100%29.86 "Hg5 mi
4:20 PM37 °FLight rain. Partly sunny.3 mph100%29.86 "Hg6 mi
3:50 PM37 °FLight rain. Partly sunny.15 mph100%29.86 "Hg4 mi
3:20 PM43 °FScattered showers. Broken clouds.13 mph71%29.89 "HgN/A
2:50 PM43 °FBroken clouds.10 mph71%29.89 "HgN/A
2:20 PM43 °FBroken clouds.18 mph71%29.89 "HgN/A
1:50 PM43 °FBroken clouds.18 mph66%29.89 "HgN/A
1:20 PM43 °FScattered clouds.16 mph71%29.92 "HgN/A
12:50 PM43 °FScattered clouds.21 mph71%29.92 "HgN/A
12:20 PM43 °FScattered clouds.18 mph71%29.92 "HgN/A
11:50 AM41 °FScattered clouds.20 mph76%29.92 "HgN/A
11:20 AM41 °FScattered clouds.20 mph76%29.92 "HgN/A
10:50 AM39 °FPartly sunny.17 mph87%29.92 "HgN/A
10:20 AM39 °FPartly sunny.16 mph87%29.92 "HgN/A
9:50 AM37 °FScattered clouds.18 mph87%29.92 "HgN/A
9:20 AM37 °FScattered clouds.16 mph87%29.92 "HgN/A
8:50 AM36 °FPassing clouds.14 mph93%29.89 "HgN/A
8:20 AM36 °FPassing clouds.14 mph93%29.89 "HgN/A
7:50 AM36 °FSunny.14 mph87%29.89 "Hg10 mi
7:20 AM36 °FSunny.15 mph93%29.86 "Hg10 mi
6:50 AM34 °FPassing clouds.13 mph100%29.86 "HgN/A
6:20 AM36 °FPassing clouds.17 mph93%29.86 "HgN/A
Weather by CustomWeather, © 2015

See weather overviewHow to use our weather pages